Year,Month,Day,Hour,Minute,Value (Times are PST for temperature in C)
2020,12,02,00,00,5.30
2020,12,02,00,01,5.30
2020,12,02,00,02,5.30
2020,12,02,00,03,5.30
2020,12,02,00,04,5.30
2020,12,02,00,05,5.30
2020,12,02,00,06,5.30
2020,12,02,00,07,5.30
2020,12,02,00,08,5.30
2020,12,02,00,09,5.40
2020,12,02,00,10,5.30
2020,12,02,00,11,5.40
2020,12,02,00,12,5.40
2020,12,02,00,13,5.30
2020,12,02,00,14,5.30
2020,12,02,00,15,5.30
2020,12,02,00,16,5.30
2020,12,02,00,17,5.30
2020,12,02,00,18,5.30
2020,12,02,00,19,5.30
2020,12,02,00,20,5.40
2020,12,02,00,21,5.40
2020,12,02,00,22,5.40
2020,12,02,00,23,5.40
2020,12,02,00,24,5.40
2020,12,02,00,25,5.40
2020,12,02,00,26,5.40
2020,12,02,00,27,5.40
2020,12,02,00,28,5.40
2020,12,02,00,29,5.40
2020,12,02,00,30,5.40
2020,12,02,00,31,5.40
2020,12,02,00,32,5.40
2020,12,02,00,33,5.40
2020,12,02,00,34,5.40
2020,12,02,00,35,5.40
2020,12,02,00,36,5.40
2020,12,02,00,37,5.40
2020,12,02,00,38,5.40
2020,12,02,00,39,5.40
2020,12,02,00,40,5.40
2020,12,02,00,41,5.40
2020,12,02,00,42,5.40
2020,12,02,00,43,5.40
2020,12,02,00,44,5.40
2020,12,02,00,45,5.40
2020,12,02,00,46,5.40
2020,12,02,00,47,5.40
2020,12,02,00,48,5.40
2020,12,02,00,49,5.40
2020,12,02,00,50,5.40
2020,12,02,00,51,5.40
2020,12,02,00,52,5.40
2020,12,02,00,53,5.40
2020,12,02,00,54,5.40
2020,12,02,00,55,5.40
2020,12,02,00,56,5.40
2020,12,02,00,57,5.40
2020,12,02,00,58,5.40
2020,12,02,00,59,5.40
2020,12,02,01,00,5.40
2020,12,02,01,01,5.40
2020,12,02,01,02,5.40
2020,12,02,01,03,5.40
2020,12,02,01,04,5.40
2020,12,02,01,05,5.40
2020,12,02,01,06,5.40
2020,12,02,01,07,5.40
2020,12,02,01,08,5.40
2020,12,02,01,09,5.40
2020,12,02,01,10,5.40
2020,12,02,01,11,5.40
2020,12,02,01,12,5.40
2020,12,02,01,13,5.40
2020,12,02,01,14,5.40
2020,12,02,01,15,5.40
2020,12,02,01,16,5.40
2020,12,02,01,17,5.40
2020,12,02,01,18,5.40
2020,12,02,01,19,5.40
2020,12,02,01,20,5.40
2020,12,02,01,21,5.40
2020,12,02,01,22,5.40
2020,12,02,01,23,5.40
2020,12,02,01,24,5.40
2020,12,02,01,25,5.40
2020,12,02,01,26,5.40
2020,12,02,01,27,5.40
2020,12,02,01,28,5.40
2020,12,02,01,29,5.40
2020,12,02,01,30,5.40
2020,12,02,01,31,5.40
2020,12,02,01,32,5.40
2020,12,02,01,33,5.40
2020,12,02,01,34,5.40
2020,12,02,01,35,5.40
2020,12,02,01,36,5.40
2020,12,02,01,37,5.30
2020,12,02,01,38,5.30
2020,12,02,01,39,5.30
2020,12,02,01,40,5.40
2020,12,02,01,41,5.30
2020,12,02,01,42,5.30
2020,12,02,01,43,5.30
2020,12,02,01,44,5.30
2020,12,02,01,45,5.30
2020,12,02,01,46,5.30
2020,12,02,01,47,5.30
2020,12,02,01,48,5.30
2020,12,02,01,49,5.30
2020,12,02,01,50,5.30
2020,12,02,01,51,5.30
2020,12,02,01,52,5.30
2020,12,02,01,53,5.30
2020,12,02,01,54,5.30
2020,12,02,01,55,5.30
2020,12,02,01,56,5.30
2020,12,02,01,57,5.30
2020,12,02,01,58,5.30
2020,12,02,01,59,5.30
2020,12,02,02,00,5.30
2020,12,02,02,01,5.30
2020,12,02,02,02,5.30
2020,12,02,02,03,5.30
2020,12,02,02,04,5.30
2020,12,02,02,05,5.30
2020,12,02,02,06,5.30
2020,12,02,02,07,5.30
2020,12,02,02,08,5.30
2020,12,02,02,09,5.30
2020,12,02,02,10,5.30
2020,12,02,02,11,5.30
2020,12,02,02,12,5.30
2020,12,02,02,13,5.30
2020,12,02,02,14,5.30
2020,12,02,02,15,5.30
2020,12,02,02,16,5.30
2020,12,02,02,17,5.30
2020,12,02,02,18,5.30
2020,12,02,02,19,5.30
2020,12,02,02,20,5.30
2020,12,02,02,21,5.30
2020,12,02,02,22,5.30
2020,12,02,02,23,5.30
2020,12,02,02,24,5.30
2020,12,02,02,25,5.30
2020,12,02,02,26,5.30
2020,12,02,02,27,5.30
2020,12,02,02,28,5.30
2020,12,02,02,29,5.30
2020,12,02,02,30,5.30
2020,12,02,02,31,5.30
2020,12,02,02,32,5.30
2020,12,02,02,33,5.30
2020,12,02,02,34,5.30
2020,12,02,02,35,5.30
2020,12,02,02,36,5.30
2020,12,02,02,37,5.30
2020,12,02,02,38,5.30
2020,12,02,02,39,5.30
2020,12,02,02,40,5.30
2020,12,02,02,41,5.40
2020,12,02,02,42,5.30
2020,12,02,02,43,5.30
2020,12,02,02,44,5.30
2020,12,02,02,45,5.30
2020,12,02,02,46,5.30
2020,12,02,02,47,5.30
2020,12,02,02,48,5.30
2020,12,02,02,49,5.30
2020,12,02,02,50,5.40
2020,12,02,02,51,5.40
2020,12,02,02,52,5.40
2020,12,02,02,53,5.40
2020,12,02,02,54,5.40
2020,12,02,02,55,5.40
2020,12,02,02,56,5.40
2020,12,02,02,57,5.40
2020,12,02,02,58,5.30
2020,12,02,02,59,5.30
2020,12,02,03,00,5.30
2020,12,02,03,01,5.30
2020,12,02,03,02,5.30
2020,12,02,03,03,5.30
2020,12,02,03,04,5.30
2020,12,02,03,05,5.30
2020,12,02,03,06,5.30
2020,12,02,03,07,5.30
2020,12,02,03,08,5.30
2020,12,02,03,09,5.30
2020,12,02,03,10,5.30
2020,12,02,03,11,5.30
2020,12,02,03,12,5.30
2020,12,02,03,13,5.30
2020,12,02,03,14,5.30
2020,12,02,03,15,5.30
2020,12,02,03,16,5.30
2020,12,02,03,17,5.30
2020,12,02,03,18,5.30
2020,12,02,03,19,5.30
2020,12,02,03,20,5.30
2020,12,02,03,21,5.30
2020,12,02,03,22,5.20
2020,12,02,03,23,5.20
2020,12,02,03,24,5.20
2020,12,02,03,25,5.20
2020,12,02,03,26,5.20
2020,12,02,03,27,5.20
2020,12,02,03,28,5.20
2020,12,02,03,29,5.20
2020,12,02,03,30,5.20
2020,12,02,03,31,5.20
2020,12,02,03,32,5.20
2020,12,02,03,33,5.20
2020,12,02,03,34,5.20
2020,12,02,03,35,5.20
2020,12,02,03,36,5.20
2020,12,02,03,37,5.20
2020,12,02,03,38,5.20
2020,12,02,03,39,5.20
2020,12,02,03,40,5.20
2020,12,02,03,41,5.20
2020,12,02,03,42,5.20
2020,12,02,03,43,5.20
2020,12,02,03,44,5.20
2020,12,02,03,45,5.20
2020,12,02,03,46,5.20
2020,12,02,03,47,5.20
2020,12,02,03,48,5.20
2020,12,02,03,49,5.20
2020,12,02,03,50,5.20
2020,12,02,03,51,5.20
2020,12,02,03,52,5.20
2020,12,02,03,53,5.10
2020,12,02,03,54,5.10
2020,12,02,03,55,5.10
2020,12,02,03,56,5.10
2020,12,02,03,57,5.10
2020,12,02,03,58,5.10
2020,12,02,03,59,5.10
2020,12,02,04,00,5.10
2020,12,02,04,01,5.10
2020,12,02,04,02,5.10
2020,12,02,04,03,5.10
2020,12,02,04,04,5.10
2020,12,02,04,05,5.10
2020,12,02,04,06,5.10
2020,12,02,04,07,5.10
2020,12,02,04,08,5.10
2020,12,02,04,09,5.10
2020,12,02,04,10,5.10
2020,12,02,04,11,5.10
2020,12,02,04,12,5.20
2020,12,02,04,13,5.20
2020,12,02,04,14,5.20
2020,12,02,04,15,5.20
2020,12,02,04,16,5.20
2020,12,02,04,17,5.20
2020,12,02,04,18,5.20
2020,12,02,04,19,5.20
2020,12,02,04,20,5.20
2020,12,02,04,21,5.20
2020,12,02,04,22,5.20
2020,12,02,04,23,5.30
2020,12,02,04,24,5.30
2020,12,02,04,25,5.30
2020,12,02,04,26,5.30
2020,12,02,04,27,5.30
2020,12,02,04,28,5.30
2020,12,02,04,29,5.30
2020,12,02,04,30,5.30
2020,12,02,04,31,5.30
2020,12,02,04,32,5.30
2020,12,02,04,33,5.20
2020,12,02,04,34,5.20
2020,12,02,04,35,5.20
2020,12,02,04,36,5.20
2020,12,02,04,37,5.20
2020,12,02,04,38,5.20
2020,12,02,04,39,5.20
2020,12,02,04,40,5.20
2020,12,02,04,41,5.20
2020,12,02,04,42,5.20
2020,12,02,04,43,5.20
2020,12,02,04,44,5.20
2020,12,02,04,45,5.20
2020,12,02,04,46,5.20
2020,12,02,04,47,5.10
2020,12,02,04,48,5.10
2020,12,02,04,49,5.10
2020,12,02,04,50,5.10
2020,12,02,04,51,5.10
2020,12,02,04,52,5.10
2020,12,02,04,53,5.10
2020,12,02,04,54,5.10
2020,12,02,04,55,5.20
2020,12,02,04,56,5.20
2020,12,02,04,57,5.20
2020,12,02,04,58,5.20
2020,12,02,04,59,5.20
2020,12,02,05,00,5.20
2020,12,02,05,01,5.20
2020,12,02,05,02,5.20
2020,12,02,05,03,5.20
2020,12,02,05,04,5.20
2020,12,02,05,05,5.20
2020,12,02,05,06,5.20
2020,12,02,05,07,5.20
2020,12,02,05,08,5.20
2020,12,02,05,09,5.20
2020,12,02,05,10,5.20
2020,12,02,05,11,5.20
2020,12,02,05,12,5.20
2020,12,02,05,13,5.20
2020,12,02,05,14,5.20
2020,12,02,05,15,5.20
2020,12,02,05,16,5.20
2020,12,02,05,17,5.20
2020,12,02,05,18,5.20
2020,12,02,05,19,5.20
2020,12,02,05,20,5.20
2020,12,02,05,21,5.20
2020,12,02,05,22,5.20
2020,12,02,05,23,5.20
2020,12,02,05,24,5.20
2020,12,02,05,25,5.20
2020,12,02,05,26,5.20
2020,12,02,05,27,5.20
2020,12,02,05,28,5.10
2020,12,02,05,29,5.10
2020,12,02,05,30,5.10
2020,12,02,05,31,5.10
2020,12,02,05,32,5.10
2020,12,02,05,33,5.10
2020,12,02,05,34,5.10
2020,12,02,05,35,5.10
2020,12,02,05,36,5.10
2020,12,02,05,37,5.10
2020,12,02,05,38,5.10
2020,12,02,05,39,5.10
2020,12,02,05,40,5.10
2020,12,02,05,41,5.10
2020,12,02,05,42,5.10
2020,12,02,05,43,5.10
2020,12,02,05,44,5.10
2020,12,02,05,45,5.10
2020,12,02,05,46,5.10
2020,12,02,05,47,5.10
2020,12,02,05,48,5.10
2020,12,02,05,49,5.10
2020,12,02,05,50,5.00
2020,12,02,05,51,5.00
2020,12,02,05,52,5.00
2020,12,02,05,53,5.00
2020,12,02,05,54,5.00
2020,12,02,05,55,5.00
2020,12,02,05,56,5.00
2020,12,02,05,57,5.00
2020,12,02,05,58,5.00
2020,12,02,05,59,5.00
2020,12,02,06,00,5.00
2020,12,02,06,01,5.00
2020,12,02,06,02,5.00
2020,12,02,06,03,4.90
2020,12,02,06,04,4.90
2020,12,02,06,05,4.90
2020,12,02,06,06,4.90
2020,12,02,06,07,4.90
2020,12,02,06,08,4.90
2020,12,02,06,09,4.90
2020,12,02,06,10,4.90
2020,12,02,06,11,4.90
2020,12,02,06,12,4.90
2020,12,02,06,13,4.90
2020,12,02,06,14,4.90
2020,12,02,06,15,4.90
2020,12,02,06,16,4.90
2020,12,02,06,17,4.90
2020,12,02,06,18,4.90
2020,12,02,06,19,4.80
2020,12,02,06,20,4.90
2020,12,02,06,21,4.90
2020,12,02,06,22,4.80
2020,12,02,06,23,4.80
2020,12,02,06,24,4.80
2020,12,02,06,25,4.80
2020,12,02,06,26,4.80
2020,12,02,06,27,4.80
2020,12,02,06,28,4.80
2020,12,02,06,29,4.80
2020,12,02,06,30,4.80
2020,12,02,06,31,4.80
2020,12,02,06,32,4.80
2020,12,02,06,33,4.80
2020,12,02,06,34,4.80
2020,12,02,06,35,4.80
2020,12,02,06,36,4.80
2020,12,02,06,37,4.80
2020,12,02,06,38,4.80
2020,12,02,06,39,4.80
2020,12,02,06,40,4.80
2020,12,02,06,41,4.80
2020,12,02,06,42,4.80
2020,12,02,06,43,4.80
2020,12,02,06,44,4.80
2020,12,02,06,45,4.80
2020,12,02,06,46,4.80
2020,12,02,06,47,4.80
2020,12,02,06,48,4.90
2020,12,02,06,49,4.90
2020,12,02,06,50,4.90
2020,12,02,06,51,4.90
2020,12,02,06,52,4.90
2020,12,02,06,53,4.90
2020,12,02,06,54,5.00
2020,12,02,06,55,5.00
2020,12,02,06,56,5.00
2020,12,02,06,57,5.00
2020,12,02,06,58,5.00
2020,12,02,06,59,5.00
2020,12,02,07,00,5.00
2020,12,02,07,01,5.00
2020,12,02,07,02,5.00
2020,12,02,07,03,5.00
2020,12,02,07,04,5.00
2020,12,02,07,05,5.00
2020,12,02,07,06,5.00
2020,12,02,07,07,5.00
2020,12,02,07,08,5.00
2020,12,02,07,09,5.00
2020,12,02,07,10,5.00
2020,12,02,07,11,5.00
2020,12,02,07,12,5.00
2020,12,02,07,13,5.00
2020,12,02,07,14,5.00
2020,12,02,07,15,5.00
2020,12,02,07,16,5.00
2020,12,02,07,17,5.00
2020,12,02,07,18,5.00
2020,12,02,07,19,5.10
2020,12,02,07,20,5.10
2020,12,02,07,21,5.10
2020,12,02,07,22,5.10
2020,12,02,07,23,5.10
2020,12,02,07,24,5.10
2020,12,02,07,25,5.10
2020,12,02,07,26,5.10
2020,12,02,07,27,5.10
2020,12,02,07,28,5.10
2020,12,02,07,29,5.10
2020,12,02,07,30,5.10
2020,12,02,07,31,5.10
2020,12,02,07,32,5.10
2020,12,02,07,33,5.10
2020,12,02,07,34,5.10
2020,12,02,07,35,5.10
2020,12,02,07,36,5.10
2020,12,02,07,37,5.10
2020,12,02,07,38,5.10
2020,12,02,07,39,5.20
2020,12,02,07,40,5.20
2020,12,02,07,41,5.20
2020,12,02,07,42,5.20
2020,12,02,07,43,5.20
2020,12,02,07,44,5.20
2020,12,02,07,45,5.20
2020,12,02,07,46,5.30
2020,12,02,07,47,5.30
2020,12,02,07,48,5.30
2020,12,02,07,49,5.30
2020,12,02,07,50,5.30
2020,12,02,07,51,5.20
2020,12,02,07,52,5.20
2020,12,02,07,53,5.20
2020,12,02,07,54,5.20
2020,12,02,07,55,5.20
2020,12,02,07,56,5.20
2020,12,02,07,57,5.20
2020,12,02,07,58,5.20
2020,12,02,07,59,5.20
2020,12,02,08,00,5.20
2020,12,02,08,01,5.20
2020,12,02,08,02,5.20
2020,12,02,08,03,5.20
2020,12,02,08,04,5.30
2020,12,02,08,05,5.30
2020,12,02,08,06,5.30
2020,12,02,08,07,5.30
2020,12,02,08,08,5.30
2020,12,02,08,09,5.30
2020,12,02,08,10,5.30
2020,12,02,08,11,5.40
2020,12,02,08,12,5.40
2020,12,02,08,13,5.40
2020,12,02,08,14,5.40
2020,12,02,08,15,5.40
2020,12,02,08,16,5.50
2020,12,02,08,17,5.50
2020,12,02,08,18,5.50
2020,12,02,08,19,5.60
2020,12,02,08,20,5.60
2020,12,02,08,21,5.60
2020,12,02,08,22,5.70
2020,12,02,08,23,5.70
2020,12,02,08,24,5.70
2020,12,02,08,25,5.70
2020,12,02,08,26,5.70
2020,12,02,08,27,5.80
2020,12,02,08,28,5.80
2020,12,02,08,29,5.80
2020,12,02,08,30,5.80
2020,12,02,08,31,5.80
2020,12,02,08,32,5.80
2020,12,02,08,33,5.80
2020,12,02,08,34,5.80
2020,12,02,08,35,5.80
2020,12,02,08,36,5.80
2020,12,02,08,37,5.90
2020,12,02,08,38,5.90
2020,12,02,08,39,5.90
2020,12,02,08,40,5.90
2020,12,02,08,41,5.90
2020,12,02,08,42,5.90
2020,12,02,08,43,6.00
2020,12,02,08,44,6.00
2020,12,02,08,45,6.10
2020,12,02,08,46,6.10
2020,12,02,08,47,6.10
2020,12,02,08,48,6.10
2020,12,02,08,49,6.10
2020,12,02,08,50,6.10
2020,12,02,08,51,6.10
2020,12,02,08,52,6.20
2020,12,02,08,53,6.20
2020,12,02,08,54,6.20
2020,12,02,08,55,6.20
2020,12,02,08,56,6.20
2020,12,02,08,57,6.30
2020,12,02,08,58,6.30
2020,12,02,08,59,6.30
2020,12,02,09,00,6.30
2020,12,02,09,01,6.30
2020,12,02,09,02,6.40
2020,12,02,09,03,6.40
2020,12,02,09,04,6.40
2020,12,02,09,05,6.40
2020,12,02,09,06,6.40
2020,12,02,09,07,6.40
2020,12,02,09,08,6.50
2020,12,02,09,09,6.50
2020,12,02,09,10,6.60
2020,12,02,09,11,6.60
2020,12,02,09,12,6.60
2020,12,02,09,13,6.60
2020,12,02,09,14,6.60
2020,12,02,09,15,6.70
2020,12,02,09,16,6.70
2020,12,02,09,17,6.70
2020,12,02,09,18,6.70
2020,12,02,09,19,6.70
2020,12,02,09,20,6.70
2020,12,02,09,21,6.80
2020,12,02,09,22,6.80
2020,12,02,09,23,6.80
2020,12,02,09,24,6.80
2020,12,02,09,25,6.80
2020,12,02,09,26,6.80
2020,12,02,09,27,6.90
2020,12,02,09,28,6.90
2020,12,02,09,29,6.90
2020,12,02,09,30,6.90
2020,12,02,09,31,6.90
2020,12,02,09,32,6.90
2020,12,02,09,33,6.90
2020,12,02,09,34,6.90
2020,12,02,09,35,6.90
2020,12,02,09,36,6.90
2020,12,02,09,37,7.00
2020,12,02,09,38,7.00
2020,12,02,09,39,7.00
2020,12,02,09,40,7.10
2020,12,02,09,41,7.10
2020,12,02,09,42,7.10
2020,12,02,09,43,7.20
2020,12,02,09,44,7.20
2020,12,02,09,45,7.30
2020,12,02,09,46,7.30
2020,12,02,09,47,7.30
2020,12,02,09,48,7.30
2020,12,02,09,49,7.30
2020,12,02,09,50,7.40
2020,12,02,09,51,7.40
2020,12,02,09,52,7.40
2020,12,02,09,53,7.40
2020,12,02,09,54,7.40
2020,12,02,09,55,7.40
2020,12,02,09,56,7.50
2020,12,02,09,57,7.50
2020,12,02,09,58,7.60
2020,12,02,09,59,7.60
2020,12,02,10,00,7.60
2020,12,02,10,01,7.60
2020,12,02,10,02,7.70
2020,12,02,10,03,7.70
2020,12,02,10,04,7.80
2020,12,02,10,05,7.80
2020,12,02,10,06,7.80
2020,12,02,10,07,7.80
2020,12,02,10,08,7.80
2020,12,02,10,09,7.80
2020,12,02,10,10,7.80
2020,12,02,10,11,7.80
2020,12,02,10,12,7.80
2020,12,02,10,13,7.80
2020,12,02,10,14,7.80
2020,12,02,10,15,7.80
2020,12,02,10,16,7.80
2020,12,02,10,17,7.90
2020,12,02,10,18,7.90
2020,12,02,10,19,7.90
2020,12,02,10,20,7.90
2020,12,02,10,21,7.90
2020,12,02,10,22,7.90
2020,12,02,10,23,7.90
2020,12,02,10,24,7.90
2020,12,02,10,25,7.90
2020,12,02,10,26,7.90
2020,12,02,10,27,7.90
2020,12,02,10,28,8.00
2020,12,02,10,29,8.10
2020,12,02,10,30,8.10
2020,12,02,10,31,8.20
2020,12,02,10,32,8.20
2020,12,02,10,33,8.20
2020,12,02,10,34,8.30
2020,12,02,10,35,8.30
2020,12,02,10,36,8.30
2020,12,02,10,37,8.30
2020,12,02,10,38,8.30
2020,12,02,10,39,8.30
2020,12,02,10,40,8.30
2020,12,02,10,41,8.30
2020,12,02,10,42,8.30
2020,12,02,10,43,8.30
2020,12,02,10,44,8.30
2020,12,02,10,45,8.30
2020,12,02,10,46,8.30
2020,12,02,10,47,8.30
2020,12,02,10,48,8.30
2020,12,02,10,49,8.40
2020,12,02,10,50,8.40
2020,12,02,10,51,8.40
2020,12,02,10,52,8.40
2020,12,02,10,53,8.40
2020,12,02,10,54,8.40
2020,12,02,10,55,8.50
2020,12,02,10,56,8.50
2020,12,02,10,57,8.50
2020,12,02,10,58,8.60
2020,12,02,10,59,8.60
2020,12,02,11,00,8.60
2020,12,02,11,01,8.60
2020,12,02,11,02,8.60
2020,12,02,11,03,8.60
2020,12,02,11,04,8.60
2020,12,02,11,05,8.60
2020,12,02,11,06,8.60
2020,12,02,11,07,8.60
2020,12,02,11,08,8.60
2020,12,02,11,09,8.70
2020,12,02,11,10,8.70
2020,12,02,11,11,8.70
2020,12,02,11,12,8.70
2020,12,02,11,13,8.70
2020,12,02,11,14,8.70
2020,12,02,11,15,8.70
2020,12,02,11,16,8.70
2020,12,02,11,17,8.70
2020,12,02,11,18,8.70
2020,12,02,11,19,8.70
2020,12,02,11,20,8.80
2020,12,02,11,21,8.80
2020,12,02,11,22,8.80
2020,12,02,11,23,8.90
2020,12,02,11,24,8.90
2020,12,02,11,25,8.90
2020,12,02,11,26,8.90
2020,12,02,11,27,8.90
2020,12,02,11,28,8.90
2020,12,02,11,29,8.90
2020,12,02,11,30,8.80
2020,12,02,11,31,8.80
2020,12,02,11,32,8.80
2020,12,02,11,33,8.80
2020,12,02,11,34,8.80
2020,12,02,11,35,8.80
2020,12,02,11,36,8.80
2020,12,02,11,37,8.90
2020,12,02,11,38,8.90
2020,12,02,11,39,8.90
2020,12,02,11,40,8.90
2020,12,02,11,41,8.90
2020,12,02,11,42,8.90
2020,12,02,11,43,8.90
2020,12,02,11,44,8.90
2020,12,02,11,45,8.90
2020,12,02,11,46,9.00
2020,12,02,11,47,9.00
2020,12,02,11,48,9.00
2020,12,02,11,49,9.10
2020,12,02,11,50,9.10
2020,12,02,11,51,9.10
2020,12,02,11,52,9.10
2020,12,02,11,53,9.10
2020,12,02,11,54,9.10
2020,12,02,11,55,9.10
2020,12,02,11,56,9.10
2020,12,02,11,57,9.20
2020,12,02,11,58,9.20
2020,12,02,11,59,9.20
2020,12,02,12,00,9.20
2020,12,02,12,01,9.20
2020,12,02,12,02,9.20
2020,12,02,12,03,9.30
2020,12,02,12,04,9.20
2020,12,02,12,05,9.20
2020,12,02,12,06,9.20
2020,12,02,12,07,9.20
2020,12,02,12,08,9.20
2020,12,02,12,09,9.20
2020,12,02,12,10,9.20
2020,12,02,12,11,9.20
2020,12,02,12,12,9.20
2020,12,02,12,13,9.30
2020,12,02,12,14,9.30
2020,12,02,12,15,9.30
2020,12,02,12,16,9.30
2020,12,02,12,17,9.30
2020,12,02,12,18,9.20
2020,12,02,12,19,9.20
2020,12,02,12,20,9.20
2020,12,02,12,21,9.20
2020,12,02,12,22,9.20
2020,12,02,12,23,9.20
2020,12,02,12,24,9.20
2020,12,02,12,25,9.20
2020,12,02,12,26,9.30
2020,12,02,12,27,9.30
2020,12,02,12,28,9.30
2020,12,02,12,29,9.40
2020,12,02,12,30,9.40
2020,12,02,12,31,9.40
2020,12,02,12,32,9.40
2020,12,02,12,33,9.40
2020,12,02,12,34,9.40
2020,12,02,12,35,9.50
2020,12,02,12,36,9.50
2020,12,02,12,37,9.50
2020,12,02,12,38,9.50
2020,12,02,12,39,9.50
2020,12,02,12,40,9.40
2020,12,02,12,41,9.40
2020,12,02,12,42,9.40
2020,12,02,12,43,9.40
2020,12,02,12,44,9.40
2020,12,02,12,45,9.40
2020,12,02,12,46,9.40
2020,12,02,12,47,9.40
2020,12,02,12,48,9.40
2020,12,02,12,49,9.40
2020,12,02,12,50,9.40
2020,12,02,12,51,9.40
2020,12,02,12,52,9.50
2020,12,02,12,53,9.50
2020,12,02,12,54,9.60
2020,12,02,12,55,9.60
2020,12,02,12,56,9.60
2020,12,02,12,57,9.60
2020,12,02,12,58,9.60
2020,12,02,12,59,9.70
2020,12,02,13,00,9.70
2020,12,02,13,01,9.70
2020,12,02,13,02,9.70
2020,12,02,13,03,9.70
2020,12,02,13,04,9.70
2020,12,02,13,05,9.70
2020,12,02,13,06,9.70
2020,12,02,13,07,9.70
2020,12,02,13,08,9.70
2020,12,02,13,09,9.70
2020,12,02,13,10,9.70
2020,12,02,13,11,9.70
2020,12,02,13,12,9.70
2020,12,02,13,13,9.70
2020,12,02,13,14,9.70
2020,12,02,13,15,9.70
2020,12,02,13,16,9.70
2020,12,02,13,17,9.70
2020,12,02,13,18,9.70
2020,12,02,13,19,9.80
2020,12,02,13,20,9.80
2020,12,02,13,21,9.80
2020,12,02,13,22,9.80
2020,12,02,13,23,9.80
2020,12,02,13,24,9.80
2020,12,02,13,25,9.80
2020,12,02,13,26,9.80
2020,12,02,13,27,9.80
2020,12,02,13,28,9.80
2020,12,02,13,29,9.80
2020,12,02,13,30,9.80
2020,12,02,13,31,9.80
2020,12,02,13,32,9.80
2020,12,02,13,33,9.80
2020,12,02,13,34,9.80
2020,12,02,13,35,9.90
2020,12,02,13,36,9.90
2020,12,02,13,37,9.90
2020,12,02,13,38,9.90
2020,12,02,13,39,9.90
2020,12,02,13,40,9.90
2020,12,02,13,41,9.90
2020,12,02,13,42,9.90
2020,12,02,13,43,10.00
2020,12,02,13,44,10.00
2020,12,02,13,45,10.00
2020,12,02,13,46,9.90
2020,12,02,13,47,9.90
2020,12,02,13,48,9.90
2020,12,02,13,49,9.90
2020,12,02,13,50,9.90
2020,12,02,13,51,9.90
2020,12,02,13,52,9.90
2020,12,02,13,53,9.90
2020,12,02,13,54,9.90
2020,12,02,13,55,9.90
2020,12,02,13,56,9.80
2020,12,02,13,57,9.80
2020,12,02,13,58,9.80
2020,12,02,13,59,9.90
2020,12,02,14,00,9.90
2020,12,02,14,01,9.90
2020,12,02,14,02,9.90
2020,12,02,14,03,9.90
2020,12,02,14,04,9.90
2020,12,02,14,05,9.90
2020,12,02,14,06,9.90
2020,12,02,14,07,9.90
2020,12,02,14,08,9.90
2020,12,02,14,09,9.90
2020,12,02,14,10,9.90
2020,12,02,14,11,9.90
2020,12,02,14,12,10.00
2020,12,02,14,13,10.00
2020,12,02,14,14,9.90
2020,12,02,14,15,9.90
2020,12,02,14,16,9.90
2020,12,02,14,17,9.90
2020,12,02,14,18,9.90
2020,12,02,14,19,9.90
2020,12,02,14,20,10.00
2020,12,02,14,21,10.00
2020,12,02,14,22,10.00
2020,12,02,14,23,10.00
2020,12,02,14,24,10.00
2020,12,02,14,25,9.90
2020,12,02,14,26,9.90
2020,12,02,14,27,9.90
2020,12,02,14,28,9.90
2020,12,02,14,29,9.90
2020,12,02,14,30,9.90
2020,12,02,14,31,9.90
2020,12,02,14,32,9.90
2020,12,02,14,33,9.90
2020,12,02,14,34,9.90
2020,12,02,14,35,9.90
2020,12,02,14,36,9.90
2020,12,02,14,37,9.90
2020,12,02,14,38,9.90
2020,12,02,14,39,9.90
2020,12,02,14,40,9.90
2020,12,02,14,41,9.90
2020,12,02,14,42,9.90
2020,12,02,14,43,9.90
2020,12,02,14,44,9.90
2020,12,02,14,45,9.90
2020,12,02,14,46,9.90
2020,12,02,14,47,9.90
2020,12,02,14,48,9.90
2020,12,02,14,49,9.90
2020,12,02,14,50,9.90
2020,12,02,14,51,9.90
2020,12,02,14,52,10.00
2020,12,02,14,53,10.00
2020,12,02,14,54,10.00
2020,12,02,14,55,10.00
2020,12,02,14,56,10.10
2020,12,02,14,57,10.10
2020,12,02,14,58,10.10
2020,12,02,14,59,10.10
2020,12,02,15,00,10.10
2020,12,02,15,01,10.10
2020,12,02,15,02,10.20
2020,12,02,15,03,10.20
2020,12,02,15,04,10.20
2020,12,02,15,05,10.20
2020,12,02,15,06,10.20
2020,12,02,15,07,10.20
2020,12,02,15,08,10.20
2020,12,02,15,09,10.20
2020,12,02,15,10,10.20
2020,12,02,15,11,10.20
2020,12,02,15,12,10.20
2020,12,02,15,13,10.20
2020,12,02,15,14,10.10
2020,12,02,15,15,10.10
2020,12,02,15,16,10.10
2020,12,02,15,17,10.10
2020,12,02,15,18,10.10
2020,12,02,15,19,10.10
2020,12,02,15,20,10.00
2020,12,02,15,21,10.00
2020,12,02,15,22,9.90
2020,12,02,15,23,9.90
2020,12,02,15,24,9.90
2020,12,02,15,25,9.80
2020,12,02,15,26,9.80
2020,12,02,15,27,9.80
2020,12,02,15,28,9.80
2020,12,02,15,29,9.70
2020,12,02,15,30,9.70
2020,12,02,15,31,9.70
2020,12,02,15,32,9.70
2020,12,02,15,33,9.60
2020,12,02,15,34,9.60
2020,12,02,15,35,9.60
2020,12,02,15,36,9.60
2020,12,02,15,37,9.60
2020,12,02,15,38,9.50
2020,12,02,15,39,9.50
2020,12,02,15,40,9.50
2020,12,02,15,41,9.40
2020,12,02,15,42,9.40
2020,12,02,15,43,9.40
2020,12,02,15,44,9.40
2020,12,02,15,45,9.30
2020,12,02,15,46,9.30
2020,12,02,15,47,9.30
2020,12,02,15,48,9.30
2020,12,02,15,49,9.30
2020,12,02,15,50,9.20
2020,12,02,15,51,9.20
2020,12,02,15,52,9.20
2020,12,02,15,53,9.20
2020,12,02,15,54,9.20
2020,12,02,15,55,9.10
2020,12,02,15,56,9.10
2020,12,02,15,57,9.10
2020,12,02,15,58,9.10
2020,12,02,15,59,9.10
2020,12,02,16,00,9.00
2020,12,02,16,01,9.00
2020,12,02,16,02,9.00
2020,12,02,16,03,9.00
2020,12,02,16,04,8.90
2020,12,02,16,05,8.90
2020,12,02,16,06,8.90
2020,12,02,16,07,8.90
2020,12,02,16,08,8.90
2020,12,02,16,09,8.90
2020,12,02,16,10,8.80
2020,12,02,16,11,8.80
2020,12,02,16,12,8.80
2020,12,02,16,13,8.80
2020,12,02,16,14,8.80
2020,12,02,16,15,8.80
2020,12,02,16,16,8.70
2020,12,02,16,17,8.70
2020,12,02,16,18,8.70
2020,12,02,16,19,8.70
2020,12,02,16,20,8.70
2020,12,02,16,21,8.60
2020,12,02,16,22,8.60
2020,12,02,16,23,8.60
2020,12,02,16,24,8.60
2020,12,02,16,25,8.60
2020,12,02,16,26,8.50
2020,12,02,16,27,8.50
2020,12,02,16,28,8.50
2020,12,02,16,29,8.50
2020,12,02,16,30,8.40
2020,12,02,16,31,8.40
2020,12,02,16,32,8.40
2020,12,02,16,33,8.40
2020,12,02,16,34,8.40
2020,12,02,16,35,8.40
2020,12,02,16,36,8.30
2020,12,02,16,37,8.30
2020,12,02,16,38,8.30
2020,12,02,16,39,8.30
2020,12,02,16,40,8.30
2020,12,02,16,41,8.30
2020,12,02,16,42,8.30
2020,12,02,16,43,8.20
2020,12,02,16,44,8.20
2020,12,02,16,45,8.20
2020,12,02,16,46,8.20
2020,12,02,16,47,8.20
2020,12,02,16,48,8.20
2020,12,02,16,49,8.20
2020,12,02,16,50,8.20
2020,12,02,16,51,8.10
2020,12,02,16,52,8.10
2020,12,02,16,53,8.10
2020,12,02,16,54,8.10
2020,12,02,16,55,8.10
2020,12,02,16,56,8.10
2020,12,02,16,57,8.20
2020,12,02,16,58,8.20
2020,12,02,16,59,8.20
2020,12,02,17,00,8.20
2020,12,02,17,01,8.20
2020,12,02,17,02,8.20
2020,12,02,17,03,8.20
2020,12,02,17,04,8.20
2020,12,02,17,05,8.20
2020,12,02,17,06,8.10
2020,12,02,17,07,8.10
2020,12,02,17,08,8.10
2020,12,02,17,09,8.10
2020,12,02,17,10,8.10
2020,12,02,17,11,8.10
2020,12,02,17,12,8.00
2020,12,02,17,13,8.00
2020,12,02,17,14,8.00
2020,12,02,17,15,8.00
2020,12,02,17,16,7.90
2020,12,02,17,17,7.90
2020,12,02,17,18,7.90
2020,12,02,17,19,7.90
2020,12,02,17,20,7.90
2020,12,02,17,21,7.90
2020,12,02,17,22,7.90
2020,12,02,17,23,7.90
2020,12,02,17,24,7.90
2020,12,02,17,25,7.90
2020,12,02,17,26,7.80
2020,12,02,17,27,7.80
2020,12,02,17,28,7.80
2020,12,02,17,29,7.80
2020,12,02,17,30,7.80
2020,12,02,17,31,7.70
2020,12,02,17,32,7.70
2020,12,02,17,33,7.70
2020,12,02,17,34,7.70
2020,12,02,17,35,7.70
2020,12,02,17,36,7.70
2020,12,02,17,37,7.70
2020,12,02,17,38,7.70
2020,12,02,17,39,7.70
2020,12,02,17,40,7.60
2020,12,02,17,41,7.60
2020,12,02,17,42,7.60
2020,12,02,17,43,7.60
2020,12,02,17,44,7.60
2020,12,02,17,45,7.60
2020,12,02,17,46,7.60
2020,12,02,17,47,7.60
2020,12,02,17,48,7.60
2020,12,02,17,49,7.50
2020,12,02,17,50,7.50
2020,12,02,17,51,7.50
2020,12,02,17,52,7.50
2020,12,02,17,53,7.60
2020,12,02,17,54,7.50
2020,12,02,17,55,7.50
2020,12,02,17,56,7.60
2020,12,02,17,57,7.60
2020,12,02,17,58,7.50
2020,12,02,17,59,7.50
2020,12,02,18,00,7.50
2020,12,02,18,01,7.50
2020,12,02,18,02,7.50
2020,12,02,18,03,7.50
2020,12,02,18,04,7.40